Weather History for Mt. Pocono, PA

Change the Weather History Date:

Wednesday, February 6, 2013

  Actual Average Record
Temperature  
Mean Temperature 24 °F 24 °F  
Max Temperature 30 °F 32 °F 50 °F (1962)
Min Temperature 17 °F 17 °F -15 °F (1918)
Degree Days  
Heating Degree Days 41 41  
Month to date heating degree days 281 246  
Since 1 July heating degree days 3981 4277  
Cooling Degree Days 0 0  
Month to date cooling degree days 0 0  
Year to date cooling degree days 0 0  
Moisture  
Dew Point 17 °F    
Average Humidity 67    
Maximum Humidity 92    
Minimum Humidity 42    
Precipitation  
Precipitation T in 0.07 in 0.87 in (1997)
Month to date precipitation 0.09 0.44  
Year to date precipitation 2.14 3.29  
Snow  
Snow 0.00 in - - ()
Snow Depth -    
Sea Level Pressure  
Sea Level Pressure 30.03 in    
Wind  
Wind Speed 10 mph (WNW)    
Max Wind Speed 21 mph    
Max Gust Speed 30 mph    
Visibility 7 miles    
Events Snow    
T = Trace of Precipitation, MM = Missing Value Source: NWS Daily Summary

Daily Weather History Graph

Daily Weather History Graph

Search for Another Location

Airport:

Trip Planner

Search our weather history database for the weather conditions in past years. The results will help you decide how hot, cold, wet, or windy it might be!

Date:

Astronomy

Feb. 06, 2013 Rise Set
Actual Time 7:06 AM EST 5:24 PM EST
Civil Twilight 6:38 AM EST 5:53 PM EST
Nautical Twilight 6:05 AM EST 6:26 PM EST
Astronomical Twilight 5:33 AM EST 6:58 PM EST
Moon 3:49 AM EST (2/6) 1:39 PM EST (2/6)
Length of Visible Light 11h 15m
Length of Day
10h 18m
Waning Crescent, 17% of the Moon is Illuminated
Feb 6
Waning Crescent
Feb 10
New
Feb 17
First Quarter
Feb 25
Full
Mar 4
Last Quarter

Hourly Weather History & Observations

Time (EST) Temp. Windchill Dew Point Humidity Pressure Visibility Wind Dir Wind Speed Gust Speed Precip Events Conditions
12:53 AM 26.1 °F 19.4 °F 24.1 °F 92% 29.89 in 2.5 mi West 5.8 mph - N/A   Overcast
1:02 AM 26.6 °F 19.1 °F 23.0 °F 86% 29.81 in 3.0 mi West 6.9 mph - N/A   Overcast
1:13 AM 26.6 °F 18.2 °F 23.0 °F 86% 29.81 in 3.0 mi West 8.1 mph - N/A   Overcast
1:43 AM 26.6 °F 19.1 °F 23.0 °F 86% 29.80 in 4.0 mi West 6.9 mph - N/A   Overcast
2:04 AM 26.6 °F 19.1 °F 23.0 °F 86% 29.81 in 4.0 mi West 6.9 mph - N/A   Overcast
2:11 AM 26.6 °F 18.2 °F 21.2 °F 80% 29.81 in 4.0 mi West 8.1 mph - N/A   Overcast
2:29 AM 24.8 °F 16.1 °F 21.2 °F 86% 29.81 in 7.0 mi WNW 8.1 mph - N/A   Overcast
2:53 AM 24.1 °F 17.0 °F 19.9 °F 84% 29.89 in 7.0 mi WNW 5.8 mph - N/A   Mostly Cloudy
3:44 AM 24.8 °F 16.1 °F 21.2 °F 86% 29.83 in 7.0 mi West 8.1 mph - N/A   Overcast
3:53 AM 24.1 °F 15.2 °F 19.9 °F 84% 29.91 in 6.0 mi West 8.1 mph - N/A   Overcast
4:53 AM 23.0 °F 12.4 °F 19.9 °F 88% 29.94 in 6.0 mi WNW 10.4 mph - N/A   Overcast
5:01 AM 23.0 °F 12.4 °F 19.4 °F 86% 29.86 in 6.0 mi WNW 10.4 mph - N/A   Overcast
5:53 AM 23.0 °F 11.7 °F 19.0 °F 85% 29.96 in 9.0 mi WNW 11.5 mph - N/A   Overcast
6:53 AM 21.9 °F 10.4 °F 18.0 °F 85% 29.99 in 9.0 mi WNW 11.5 mph - N/A   Partly Cloudy
7:53 AM 23.0 °F 12.4 °F 19.0 °F 85% 30.04 in 6.0 mi WNW 10.4 mph - N/A   Overcast
8:53 AM 24.1 °F 13.7 °F 19.0 °F 81% 30.04 in 5.0 mi WNW 10.4 mph - 0.00 in   Haze
9:39 AM 24.8 °F 13.4 °F 19.4 °F 80% 29.98 in 2.0 mi WNW 12.7 mph 20.7 mph 0.00 in Snow Light Snow
9:53 AM 27.0 °F 14.3 °F 19.0 °F 72% 30.06 in 7.0 mi WNW 17.3 mph - 0.00 in Snow Light Snow
10:25 AM 26.6 °F 13.8 °F 17.6 °F 69% 29.99 in 4.0 mi WNW 17.3 mph 25.3 mph 0.00 in Snow Light Snow
10:53 AM 28.0 °F 17.0 °F 17.1 °F 63% 30.07 in 10.0 mi NW 13.8 mph 20.7 mph 0.00 in   Mostly Cloudy
11:03 AM 28.4 °F 15.8 °F 17.6 °F 64% 30.01 in 10.0 mi WNW 18.4 mph 27.6 mph N/A   Mostly Cloudy
11:36 AM 28.4 °F 15.1 °F 17.6 °F 64% 30.02 in 9.0 mi WNW 20.7 mph 28.8 mph N/A   Overcast
11:53 AM 27.0 °F 17.3 °F 18.0 °F 69% 30.09 in 8.0 mi WNW 10.4 mph 24.2 mph 0.00 in   Overcast
12:53 PM 28.9 °F 20.4 °F 19.0 °F 67% 30.10 in 6.0 mi WNW 9.2 mph - 0.00 in Snow Light Snow
1:15 PM 28.4 °F 17.5 °F 17.6 °F 64% 30.03 in 10.0 mi WNW 13.8 mph 23.0 mph 0.00 in   Overcast
1:50 PM 28.4 °F 18.5 °F 17.6 °F 64% 30.04 in 10.0 mi NW 11.5 mph 25.3 mph 0.00 in   Overcast
1:53 PM 28.9 °F 17.7 °F 17.1 °F 61% 30.11 in 10.0 mi NNW 15.0 mph 24.2 mph 0.00 in   Overcast
2:53 PM 30.0 °F 18.3 °F 12.9 °F 49% 30.13 in 10.0 mi NNW 17.3 mph 23.0 mph N/A   Mostly Cloudy
3:53 PM 28.9 °F 18.2 °F 10.9 °F 47% 30.17 in 10.0 mi NW 13.8 mph 23.0 mph N/A   Clear
4:53 PM 28.0 °F 16.5 °F 9.0 °F 45% 30.19 in 10.0 mi NW 15.0 mph - N/A   Clear
5:53 PM 26.1 °F 16.2 °F 9.0 °F 49% 30.23 in 10.0 mi NW 10.4 mph - N/A   Clear
6:53 PM 24.1 °F 16.0 °F 9.0 °F 53% 30.26 in 10.0 mi NW 6.9 mph - N/A   Clear
7:53 PM 21.9 °F 14.5 °F 9.0 °F 58% 30.29 in 10.0 mi NNW 5.8 mph - N/A   Clear
8:53 PM 19.9 °F 13.4 °F 8.1 °F 60% 30.30 in 10.0 mi NW 4.6 mph - N/A   Clear
9:53 PM 19.0 °F 9.0 °F 7.0 °F 59% 30.31 in 10.0 mi NNW 8.1 mph - N/A   Clear
10:53 PM 18.0 °F 12.7 °F 7.0 °F 62% 30.32 in 10.0 mi North 3.5 mph - N/A   Clear
11:53 PM 17.1 °F 11.7 °F 7.0 °F 65% 30.32 in 10.0 mi North 3.5 mph - N/A   Clear